Home > Weather > Ghazni > Past weeks

Flag for Afghanistan Past Weather in Ghazni, Afghanistan — Yesterday and Last 2 Weeks

Now
86 °F

Broken clouds.


Feels Like: 93 °F
Forecast: 65 / 87 °F
Wind: 14 mph from Northeast

Location: Peshawar Airport

Current Time: Jul 31, 2016 at 10:00:08 AM

Latest Report: Jul 31, 2016 at 9:30 AM


Visibility: 2 mi

Pressure: 29.68 "Hg (23.20 "Hg at 2184m altitude)

Humidity: 66%

Dew Point: 73 °F

Location of GhazniLocation

Past Weather in Ghazni — Graph

°F

Ghazni Temperature Yesterday

Maximum temperature yesterday: 88 °F (at 1:30 PM)
Minimum temperature yesterday: 77 °F (at 3:29 AM)
Average temperature yesterday: 83 °F

High & Low Weather Summary for the Past Weeks

 TemperatureHumidityPressure
High104 °F (Jul 20, 1:30 PM)94% (Jul 27, 6:30 AM)29.77 "Hg (Jul 27, 6:30 AM)
Low73 °F (Jul 27, 6:30 AM)33% (Jul 20, 1:30 PM)29.47 "Hg (Jul 23, 4:30 PM)
Average89 °F59%29.60 "Hg
* Reported Jul 16 8:30 AM — Jul 31 9:00 AM, Ghazni, Weather by CustomWeather, © 2016

Note: Actual official high and low records may vary slightly from our data, if they occured in-between our weather recording intervals... More about our weather records

Advertising

Ghazni Weather History for the Previous 24 Hours

Scroll right to see more
 ConditionsComfort  
Time TempWeatherWind HumidityBarometerVisibility
9:00 AM
Sun, Jul 31
84 °FBroken clouds.14 mph66%29.68 "Hg2 mi
8:30 AM84 °FScattered clouds.14 mph66%29.68 "Hg2 mi
8:00 AM84 °FScattered clouds.12 mph66%29.65 "Hg2 mi
7:30 AM84 °FScattered clouds.12 mph66%29.65 "Hg2 mi
7:00 AM81 °FBroken clouds.16 mph74%29.65 "Hg2 mi
6:30 AM81 °FBroken clouds.16 mph74%29.65 "Hg2 mi
6:00 AM81 °FBroken clouds.9 mph74%29.62 "Hg2 mi
5:30 AM81 °FBroken clouds.9 mph74%29.62 "Hg2 mi
5:00 AM81 °FBroken clouds.12 mph74%29.62 "Hg2 mi
4:30 AM81 °FThunderstorms. Partly cloudy.12 mph74%29.62 "Hg2 mi
3:30 AM82 °FThunderstorms. Partly cloudy.12 mph70%29.62 "Hg2 mi
2:30 AM82 °FThundershowers. Partly cloudy.14 mph70%29.62 "Hg2 mi
1:30 AM82 °FPartly cloudy.12 mph70%29.62 "Hg2 mi
12:30 AM82 °FPassing clouds.7 mph70%29.62 "Hg2 mi
11:30 PM
Sat, Jul 30
82 °FPassing clouds.7 mph70%29.62 "Hg2 mi
10:30 PM82 °FPassing clouds.7 mph70%29.62 "Hg2 mi
9:30 PM82 °FPassing clouds.7 mph70%29.59 "Hg2 mi
8:30 PM84 °FPassing clouds.9 mph66%29.59 "Hg2 mi
7:30 PM84 °FPassing clouds.12 mph70%29.59 "Hg2 mi
7:00 PM86 °FPartly cloudy.14 mph66%29.59 "Hg2 mi
6:30 PM86 °FBroken clouds.14 mph66%29.59 "Hg2 mi
5:30 PM86 °FBroken clouds.18 mph66%29.56 "Hg2 mi
5:00 PM86 °FBroken clouds.18 mph66%29.59 "Hg2 mi
4:30 PM86 °FBroken clouds.18 mph66%29.59 "Hg2 mi
4:00 PM86 °FBroken clouds.21 mph66%29.59 "Hg2 mi
3:30 PM86 °FScattered clouds.21 mph66%29.59 "Hg2 mi
3:00 PM88 °FHaze.21 mph62%29.59 "Hg2 mi
2:30 PM88 °FHaze.21 mph62%29.59 "Hg2 mi
1:30 PM88 °FScattered clouds.12 mph62%29.62 "Hg2 mi
1:00 PM86 °FScattered clouds.12 mph66%29.65 "Hg2 mi
12:30 PM86 °FScattered clouds.12 mph66%29.65 "Hg2 mi
12:00 PM86 °FScattered clouds.14 mph66%29.68 "Hg2 mi
11:30 AM86 °FScattered clouds.14 mph66%29.68 "Hg2 mi
11:00 AM82 °FBroken clouds.14 mph70%29.68 "Hg2 mi
10:30 AM82 °FBroken clouds.14 mph70%29.68 "Hg2 mi
10:00 AM81 °FBroken clouds.9 mph74%29.68 "Hg2 mi
Weather by CustomWeather, © 2016

See weather overviewHow to use our weather pages